• Em Portugal
  • Lista de países
  • Para 7 dias
  • Temperatura da água
  • Mapas de satélite
  • Mapa do tempo
  • Widgets de tempo
  • user-avatar
    Iniciar Sessão

    Previsão horária em Parkoszow

    Hoje, 18 Julho, Quarta-feira

    Tempo Temperatura Precipitação Vento Pressão Humidade
    00:00 +18°C° 0,2 mm 4 m/s 743 mmHg 93%
    01:00 +18°C° 0,2 mm 4 m/s 743 mmHg 94%
    02:00 +18°C° 0,5 mm 4 m/s 743 mmHg 94%
    03:00 +17°C° 0,5 mm 5 m/s 743 mmHg 94%
    04:00 +17°C° 0,5 mm 5 m/s 743 mmHg 94%
    05:00 +17°C° 1 mm 6 m/s 743 mmHg 93%
    06:00 +17°C° 1 mm 6 m/s 743 mmHg 93%
    07:00 +17°C° 1 mm 6 m/s 744 mmHg 93%
    08:00 +17°C° 1,4 mm 6 m/s 744 mmHg 92%
    09:00 +19°C° 1,4 mm 6 m/s 744 mmHg 92%
    10:00 +18°C° 1,4 mm 7 m/s 744 mmHg 92%
    11:00 +19°C° 0,9 mm 6 m/s 745 mmHg 91%
    12:00 +19°C° 0,9 mm 6 m/s 745 mmHg 90%
    13:00 +19°C° 0,9 mm 6 m/s 745 mmHg 90%
    14:00 +20°C° 0,4 mm 6 m/s 745 mmHg 89%
    15:00 +20°C° 0,4 mm 5 m/s 745 mmHg 87%
    16:00 +20°C° 0,4 mm 5 m/s 745 mmHg 86%
    17:00 +20°C° 0,2 mm 5 m/s 746 mmHg 88%
    18:00 +20°C° 0,2 mm 4 m/s 746 mmHg 89%
    19:00 +19°C° 0,2 mm 3 m/s 746 mmHg 91%
    20:00 +19°C° 0,2 mm 3 m/s 746 mmHg 92%
    21:00 +19°C° 0,2 mm 3 m/s 747 mmHg 93%
    22:00 +19°C° 0,2 mm 3 m/s 747 mmHg 94%
    23:00 +18°C° 0,2 mm 2 m/s 747 mmHg 95%

    Amanhã, 19 Julho, Quinta-feira

    Tempo Temperatura Precipitação Vento Pressão Humidade
    00:00 +18°C° 0,2 mm 2 m/s 747 mmHg 95%
    01:00 +18°C° 0,2 mm 2 m/s 747 mmHg 95%
    02:00 +18°C° 0,1 mm 3 m/s 747 mmHg 95%
    03:00 +17°C° 0,1 mm 3 m/s 747 mmHg 95%
    04:00 +17°C° 0,1 mm 3 m/s 747 mmHg 95%
    05:00 +18°C° 0 mm 4 m/s 747 mmHg 94%
    06:00 +18°C° 0 mm 4 m/s 747 mmHg 93%
    07:00 +18°C° 0 mm 4 m/s 747 mmHg 91%
    08:00 +19°C° 0,3 mm 5 m/s 747 mmHg 90%
    09:00 +19°C° 0,3 mm 5 m/s 747 mmHg 90%
    10:00 +19°C° 0,3 mm 5 m/s 748 mmHg 89%
    11:00 +19°C° 0,5 mm 5 m/s 747 mmHg 89%
    12:00 +19°C° 0,5 mm 4 m/s 747 mmHg 90%
    13:00 +19°C° 0,5 mm 4 m/s 747 mmHg 90%
    14:00 +19°C° 0,3 mm 4 m/s 747 mmHg 90%
    15:00 +19°C° 0,3 mm 4 m/s 747 mmHg 91%
    16:00 +19°C° 0,3 mm 3 m/s 747 mmHg 91%
    17:00 +19°C° 0,1 mm 3 m/s 747 mmHg 90%
    18:00 +20°C° 0,1 mm 3 m/s 748 mmHg 90%
    19:00 +20°C° 0,1 mm 3 m/s 748 mmHg 89%
    20:00 +19°C° 0 mm 2 m/s 748 mmHg 91%
    21:00 +18°C° 0 mm 2 m/s 748 mmHg 93%
    22:00 +17°C° 0 mm 2 m/s 748 mmHg 95%
    23:00 +17°C° 0 mm 2 m/s 748 mmHg 95%

    Depois de amanhã, 20 Julho, Sexta-feira

    Tempo Temperatura Precipitação Vento Pressão Humidade
    00:00 +17°C° 0 mm 2 m/s 748 mmHg 95%
    01:00 +17°C° 0 mm 2 m/s 748 mmHg 94%
    02:00 +17°C° 0 mm 2 m/s 748 mmHg 94%
    03:00 +16°C° 0 mm 2 m/s 748 mmHg 94%
    04:00 +16°C° 0 mm 2 m/s 748 mmHg 94%
    05:00 +17°C° 0 mm 2 m/s 748 mmHg 90%
    06:00 +18°C° 0 mm 2 m/s 748 mmHg 85%
    07:00 +19°C° 0 mm 2 m/s 748 mmHg 80%
    08:00 +20°C° 0 mm 2 m/s 748 mmHg 70%
    09:00 +23°C° 0 mm 2 m/s 748 mmHg 61%
    10:00 +24°C° 0 mm 3 m/s 748 mmHg 51%
    11:00 +25°C° 0 mm 3 m/s 748 mmHg 47%
    12:00 +26°C° 0 mm 3 m/s 748 mmHg 43%
    13:00 +27°C° 0 mm 3 m/s 747 mmHg 40%
    14:00 +27°C° 0 mm 3 m/s 747 mmHg 39%
    15:00 +27°C° 0 mm 3 m/s 747 mmHg 39%
    16:00 +28°C° 0 mm 3 m/s 747 mmHg 38%
    17:00 +26°C° 0 mm 2 m/s 746 mmHg 44%
    18:00 +25°C° 0 mm 2 m/s 746 mmHg 50%
    19:00 +24°C° 0 mm 1 m/s 746 mmHg 56%
    20:00 +22°C° 0 mm 1 m/s 746 mmHg 59%
    21:00 +21°C° 0 mm 1 m/s 746 mmHg 63%
    22:00 +19°C° 0 mm 1 m/s 746 mmHg 66%
    23:00 +19°C° 0 mm 1 m/s 746 mmHg 68%

    21 Julho, Sábado

    Tempo Temperatura Precipitação Vento Pressão Humidade
    00:00 +18°C° 0 mm 1 m/s 746 mmHg 71%
    01:00 +18°C° 0 mm 1 m/s 746 mmHg 73%
    02:00 +16°C° 0 mm 1 m/s 746 mmHg 74%
    03:00 +16°C° 0 mm 1 m/s 745 mmHg 75%
    04:00 +16°C° 0 mm 1 m/s 745 mmHg 76%
    05:00 +18°C° 0 mm 1 m/s 745 mmHg 71%
    06:00 +20°C° 0 mm 1 m/s 745 mmHg 67%
    07:00 +22°C° 0 mm 1 m/s 745 mmHg 62%
    08:00 +24°C° 0 mm 1 m/s 745 mmHg 57%
    09:00 +25°C° 0 mm 1 m/s 745 mmHg 51%
    10:00 +27°C° 0 mm 1 m/s 745 mmHg 46%
    11:00 +28°C° 0 mm 1 m/s 745 mmHg 44%
    12:00 +29°C° 0 mm 1 m/s 745 mmHg 42%
    13:00 +29°C° 0 mm 1 m/s 745 mmHg 40%
    14:00 +29°C° 0 mm 1 m/s 744 mmHg 41%
    15:00 +29°C° 0 mm 1 m/s 744 mmHg 42%
    16:00 +28°C° 0 mm 1 m/s 744 mmHg 43%
    17:00 +27°C° 0 mm 2 m/s 744 mmHg 49%
    18:00 +26°C° 0 mm 2 m/s 744 mmHg 55%
    19:00 +25°C° 0 mm 2 m/s 744 mmHg 60%
    20:00 +23°C° 0 mm 2 m/s 744 mmHg 64%
    21:00 +21°C° 0 mm 2 m/s 744 mmHg 67%
    22:00 +20°C° 0 mm 2 m/s 744 mmHg 70%
    23:00 +19°C° 0 mm 2 m/s 744 mmHg 72%

    22 Julho, Domingo

    Tempo Temperatura Precipitação Vento Pressão Humidade
    00:00 +19°C° 0 mm 2 m/s 744 mmHg 74%
    01:00 +18°C° 0 mm 2 m/s 744 mmHg 76%
    02:00 +19°C° 0 mm 1 m/s 744 mmHg 77%
    03:00 +18°C° 0 mm 1 m/s 744 mmHg 78%
    04:00 +18°C° 0 mm 1 m/s 744 mmHg 79%
    05:00 +19°C° 0 mm 1 m/s 744 mmHg 75%
    06:00 +20°C° 0 mm 1 m/s 744 mmHg 71%
    07:00 +22°C° 0 mm 1 m/s 745 mmHg 67%
    08:00 +23°C° 0 mm 2 m/s 745 mmHg 62%
    09:00 +24°C° 0 mm 2 m/s 745 mmHg 56%
    10:00 +25°C° 0 mm 3 m/s 745 mmHg 51%
    11:00 +26°C° 0 mm 3 m/s 745 mmHg 48%
    12:00 +26°C° 0 mm 4 m/s 745 mmHg 45%
    13:00 +26°C° 0 mm 4 m/s 745 mmHg 43%
    14:00 +26°C° 0 mm 4 m/s 745 mmHg 44%
    15:00 +26°C° 0 mm 4 m/s 745 mmHg 45%
    16:00 +26°C° 0 mm 4 m/s 745 mmHg 46%
    17:00 +25°C° 0 mm 3 m/s 745 mmHg 51%
    18:00 +24°C° 0 mm 3 m/s 745 mmHg 56%
    19:00 +23°C° 0 mm 2 m/s 745 mmHg 61%
    20:00 +21°C° 0 mm 2 m/s 746 mmHg 64%
    21:00 +19°C° 0 mm 2 m/s 746 mmHg 68%
    22:00 +19°C° 0 mm 1 m/s 746 mmHg 71%
    23:00 +19°C° 0 mm 1 m/s 747 mmHg 74%

    23 Julho, Segunda-feira

    Tempo Temperatura Precipitação Vento Pressão Humidade
    00:00 +18°C° 0 mm 1 m/s 747 mmHg 76%
    01:00 +17°C° 0 mm 2 m/s 747 mmHg 78%
    02:00 +16°C° 0 mm 1 m/s 747 mmHg 80%
    03:00 +16°C° 0 mm 1 m/s 747 mmHg 83%
    04:00 +16°C° 0 mm 1 m/s 748 mmHg 85%
    05:00 +18°C° 0 mm 1 m/s 748 mmHg 81%
    06:00 +19°C° 0 mm 1 m/s 748 mmHg 77%
    07:00 +20°C° 0 mm 2 m/s 748 mmHg 73%
    08:00 +21°C° 0,1 mm 2 m/s 748 mmHg 67%
    09:00 +24°C° 0,1 mm 2 m/s 748 mmHg 62%
    10:00 +25°C° 0,1 mm 2 m/s 748 mmHg 56%
    11:00 +25°C° 0,1 mm 3 m/s 748 mmHg 55%
    12:00 +26°C° 0,1 mm 3 m/s 748 mmHg 53%
    13:00 +26°C° 0,1 mm 3 m/s 748 mmHg 51%
    14:00 +26°C° 0 mm 3 m/s 748 mmHg 50%
    15:00 +26°C° 0 mm 3 m/s 747 mmHg 49%
    16:00 +26°C° 0 mm 3 m/s 747 mmHg 49%
    17:00 +25°C° 0 mm 3 m/s 747 mmHg 53%
    18:00 +25°C° 0 mm 2 m/s 747 mmHg 57%
    19:00 +24°C° 0 mm 2 m/s 748 mmHg 60%
    20:00 +21°C° 0 mm 2 m/s 748 mmHg 65%
    21:00 +21°C° 0 mm 1 m/s 748 mmHg 70%
    22:00 +19°C° 0 mm 1 m/s 748 mmHg 75%
    23:00 +18°C° 0 mm 1 m/s 748 mmHg 79%
    Mostrar mais